Location: Las Navas
(40.6024°N, 4.3345°W)
Time: 01:16:46
(UTC+00:00)

CZ-2D R/B - Pass Details

Date: 03 April 2020
Orbit: 523 x 537 km, 97.4° (Epoch: 27 May)

Event Time Altitude Azimuth Distance (km) Brightness Sun altitude
Rises 19:13:11 0° 178° (S) 2,647 6.6 -6.2°
Reaches altitude 10° 19:15:19 10° 183° (S) 1,761 5.8 -6.6°
Maximum altitude 19:19:02 52° 260° (W) 659 4.2 -7.3°
Drops below altitude 10° 19:22:46 10° 338° (NNW) 1,770 6.5 -7.9°
Sets 19:24:55 0° 343° (NNW) 2,662 7.3 -8.3°
